Regional Weather Roundup
Issued by NWS

Home | Current Version | Previous Version | Graphics & Text | Print | Product List | Glossary On
Versions: 1 2 3 4 5 6 7 8 9 10 11 12 13 14 15 16 17 18 19 20 21 22 23 24 25 26 27 28 29 30 31 32 33 34 35 36 37 38 39 40 41 42 43 44 45 46 47 48 49 50
971
ASUS43 KBIS 271002
RWRND

NORTH DAKOTA REGIONAL WEATHER ROUNDUP
NATIONAL WEATHER SERVICE BISMARCK ND
500 AM CDT MON MAR 27 2017

NOTE: "FAIR" INDICATES FEW OR NO CLOUDS BELOW 12,000 FEET WITH NO
SIGNIFICANT WEATHER AND/OR OBSTRUCTIONS TO VISIBILITY.


NDZ001>003-009>011-017-271100-
NORTHWEST NORTH DAKOTA

CITY           SKY/WX    TMP DP  RH WIND       PRES   REMARKS
WILLISTON      MOCLDY    34  30  85 W3        29.89R
MINOT          FAIR      34  31  88 CALM      29.86F
MINOT AFB      CLEAR     32  32  98 SW6       29.86S
$$

NDZ018>021-031>035-040>046-271100-
SOUTHWEST NORTH DAKOTA

CITY           SKY/WX    TMP DP  RH WIND       PRES   REMARKS
BISMARCK       FAIR      32  30  92 NE6       29.90F
DICKINSON      FAIR      36  31  82 S6        29.85S
GARRISON         N/A     34  31  88 CALM      29.87F
HETTINGER ARPT CLOUDY    32  30  92 CALM      29.89F
$$

NDZ004>008-012>016-024-026-027-054-271100-
NORTHEAST NORTH DAKOTA

CITY           SKY/WX    TMP DP  RH WIND       PRES   REMARKS
GRAND FORKS    FOG       38  38 100 CALM      29.96S VSB 1/4
GRND FRKS AFB  FOG       37  37 100 CALM      29.96S VSB 1/4
DEVILS LAKE    SNOW      31  31 100 SE6       29.92F VSB 1/2
$$

NDZ022-023-025-028>030-036>039-047>053-271100-
SOUTHEAST NORTH DAKOTA

CITY           SKY/WX    TMP DP  RH WIND       PRES   REMARKS
FARGO          CLOUDY    33  32  96 NE3       29.95S FOG
JAMESTOWN      FOG       29  28  96 CALM      29.92R VSB 1/4
$$





USA.gov is the U.S. government's official web portal to all federal, state and local government web resources and services.